Location: New Plymouth
(39.0670°S, 174.0830°E)
Time: 23:09:23
(UTC+12:00)

STRAND 1 - Pass Details

Date: 02 September 2019
Orbit: 768 x 781 km, 98.5° (Epoch: 23 September)

Event Time Altitude Azimuth Distance (km) Brightness Sun altitude
Rises 18:19:23 0° 39° (NE) 3,257 ? -4.2°
Reaches altitude 10° 18:21:51 10° 48° (NE) 2,339 ? -4.7°
Maximum altitude 18:26:29 34° 111° (ESE) 1,275 ? -5.6°
Drops below altitude 10° 18:31:10 10° 175° (S) 2,370 ? -6.5°
Sets 18:33:40 0° 183° (S) 3,306 ? -7.0°
